Wetbulb
52.06 53.25 52.58 47.69 45.11 46.74 38.00 36.20 37.13 40.69 43.75 49.25 51.53 51.65 61.81 63.32 65.18 64.76 64.90 65.65 67.04 67.62 67.95 68.16 68.61 69.84 70.23 69.78 69.96 71.54 71.83 71.88
50.99 52.18 52.96 49.53 49.21 40.61 36.94 34.79 30.76 37.29 39.53 44.37 47.39 48.98 51.09 62.05 63.74 65.13 65.44 66.82 66.60 67.42 68.06 68.56 68.92 69.95 71.00 70.80 70.12 70.76 72.19 72.10
46.25 44.79 47.83 44.91 45.98 43.79 43.34 37.26 36.67 32.62 40.39 46.08 47.81 49.57 50.01 56.26 63.93 64.69 65.57 66.91 66.33 67.80 68.51 68.80 69.28 69.98 70.59 70.96 70.63 70.93 71.49 72.63
40.45 47.66 48.49 52.44 43.73 43.47 40.73 35.63 36.16 36.43 41.18 50.00 50.31 51.24 51.58 52.85 63.02 65.11 66.16 66.56 66.72 68.17 68.34 68.38 68.63 69.54 69.92 71.15 70.93 71.39 72.17 72.29
36.51 39.52 44.27 42.89 48.68 43.89 41.21 39.47 36.89 39.07 41.76 48.77 49.74 51.15 53.28 53.67 54.73 64.20 65.66 66.06 66.84 68.03 67.83 68.16 68.20 69.29 70.09 70.80 71.58 71.80 72.24 72.31
30.63 35.79 40.96 41.17 45.59 45.72 44.37 40.00 39.57 40.88 42.34 46.59 49.62 50.45 54.14 52.62 54.65 59.18 64.98 65.56 67.24 67.74 67.86 68.31 68.45 68.77 69.88 70.60 72.29 72.41 72.77 72.69
35.98 39.11 41.73 42.55 46.56 46.91 43.38 43.69 41.84 43.49 43.37 46.51 47.82 51.27 52.61 53.49 55.31 60.24 64.49 66.40 67.59 67.76 68.09 68.44 68.34 68.66 69.79 70.75 71.49 73.07 72.97 72.92
31.95 41.83 44.19 43.95 49.04 48.80 46.70 46.58 44.96 44.44 44.30 48.35 51.82 54.58 55.26 56.70 57.88 59.94 63.45 66.61 67.95 68.40 68.59 68.69 68.76 68.67 69.33 69.95 71.02 72.41 72.68 72.96
30.40 42.47 45.54 41.86 43.93 48.00 47.34 46.98 46.17 43.70 46.09 51.28 52.99 55.76 56.93 53.43 55.93 57.58 59.95 65.55 67.85 68.43 68.84 69.34 69.39 69.50 68.88 69.65 70.76 71.43 72.43 72.90
31.11 38.17 34.88 43.40 47.18 47.52 47.84 48.12 48.74 50.95 52.60 54.50 57.80 58.76 59.38 60.85 61.25 61.60 62.34 62.55 62.46 62.59 64.47 68.25 70.16 70.34 70.16 70.13 70.15 70.47 70.81 72.76
32.00 36.38 42.19 43.33 44.35 43.88 41.91 43.71 47.80 48.95 54.88 58.36 58.83 58.48 57.32 59.88 61.36 61.27 62.50 63.21 63.20 63.91 63.87 64.56 66.02 69.50 70.58 70.25 70.21 70.10 70.29 70.70
32.88 34.86 34.52 39.76 45.79 49.01 49.65 38.41 47.68 48.58 48.97 52.49 55.65 49.48 51.65 56.66 60.32 60.77 62.28 63.16 63.95 65.59 66.66 64.97 64.25 65.72 68.82 70.38 70.62 70.27 70.62 71.02
34.74 36.78 39.44 42.14 45.79 50.27 38.72 40.80 47.57 48.18 48.78 48.19 46.33 48.04 50.78 56.70 57.60 60.46 61.32 62.60 63.28 64.17 64.99 65.84 66.33 63.35 64.74 67.54 69.59 71.58 71.84 72.18
33.34 34.79 33.05 44.32 44.65 38.73 41.42 45.90 46.80 47.40 47.93 47.32 48.10 50.32 51.20 55.14 55.73 58.14 59.60 61.63 63.76 64.69 65.72 67.21 68.29 64.69 62.99 63.78 65.47 68.93 71.57 71.67
34.23 35.61 43.57 44.93 45.53 47.49 46.12 44.37 44.15 45.47 47.72 47.95 48.00 49.15 50.92 52.34 52.94 53.50 57.37 58.70 62.24 63.34 65.81 68.83 72.58 67.54 69.17 70.37 70.66 71.68 68.55 70.00
32.95 37.37 39.12 41.59 44.97 44.88 44.77 44.14 44.63 45.99 46.90 48.85 47.34 49.61 49.94 51.00 51.30 51.82 52.79 53.16 58.83 61.83 62.97 65.50 70.23 71.53 71.66 71.92 72.25 72.28 69.92 69.74
34.83 36.40 39.77 42.76 43.81 43.97 44.80 45.92 45.67 46.29 46.30 48.24 48.66 48.38 49.60 49.37 49.86 50.53 51.22 52.68 55.94 59.55 61.44 63.21 68.39 69.08 70.05 70.28 71.37 71.04 71.76 72.37
33.83 39.09 39.20 39.55 42.55 45.10 44.83 44.82 45.80 45.31 45.30 47.00 49.04 48.34 50.05 49.01 49.39 50.14 50.90 51.99 53.79 57.57 61.43 63.02 65.08 68.08 68.90 69.34 70.35 69.76 69.36 70.57
42.79 43.79 42.63 43.06 43.98 45.70 46.09 46.43 47.04 47.00 46.53 45.66 48.45 49.02 49.15 48.29 48.58 51.21 50.34 52.22 55.11 58.18 60.75 62.03 64.65 67.43 68.13 68.44 68.48 68.53 68.12 68.17
MSLP
997.21 996.83 997.29 998.05 998.57 1000.29 1001.60 1002.38 1002.27 1000.39 999.24 997.91 996.89 997.18 997.79 998.78 999.51 999.98 999.91 999.98 1000.43 1001.31 1002.18 1003.11 1004.55 1005.48 1006.42 1007.61 1008.58 1009.36 1010.00 1010.85
996.90 996.70 996.47 996.08 997.84 999.35 1000.17 1001.47 1001.74 1000.00 998.47 997.24 996.62 996.03 996.82 997.43 998.09 998.17 998.61 998.89 999.56 1000.29 1001.16 1002.24 1003.04 1004.28 1005.54 1006.65 1007.42 1008.36 1009.30 1009.98
998.53 996.49 995.43 996.37 996.57 997.67 999.13 1000.33 1000.63 999.93 997.07 995.78 995.55 995.11 995.07 995.69 996.13 996.74 997.37 997.94 998.62 999.18 1000.08 1001.13 1002.03 1003.60 1004.75 1005.99 1006.95 1007.89 1008.48 1009.02
1000.28 996.80 996.09 995.86 996.43 997.40 998.24 999.41 999.58 998.75 995.51 994.31 994.16 994.12 994.06 994.13 994.77 994.94 995.61 996.60 997.79 998.22 999.19 1000.67 1001.67 1002.90 1004.04 1005.10 1006.11 1006.78 1007.47 1008.41
1002.02 998.61 996.92 996.40 996.02 995.98 996.90 997.59 998.06 998.06 994.65 993.89 993.68 993.67 993.44 992.68 992.88 993.45 994.40 995.59 996.64 997.75 998.94 999.89 1000.94 1001.92 1002.98 1004.11 1005.00 1005.93 1006.86 1007.63
1006.63 1002.06 1000.18 997.27 995.89 995.67 995.70 996.46 996.93 996.11 994.72 994.14 993.28 993.01 992.03 991.10 991.32 992.15 993.04 994.32 995.42 996.76 997.93 998.95 999.93 1000.83 1002.02 1003.09 1004.04 1005.03 1006.05 1006.79
1007.27 1003.43 1000.83 998.50 995.89 994.68 995.05 995.05 995.53 995.45 995.03 993.96 993.50 992.84 991.87 991.29 991.25 991.87 992.54 993.48 994.53 995.87 997.13 998.16 999.34 1000.21 1001.20 1002.06 1002.96 1003.94 1005.00 1005.80
1005.97 1001.15 999.20 997.64 995.42 994.53 994.40 994.42 994.80 994.94 994.60 993.60 993.52 993.49 992.22 991.91 991.56 992.08 992.42 993.23 993.98 994.88 996.02 997.26 998.19 999.10 1000.02 1001.04 1001.92 1002.96 1003.79 1004.45
1005.56 1000.97 998.75 997.60 997.14 995.23 994.23 994.80 995.19 995.55 994.59 994.29 994.66 995.34 994.53 993.29 992.55 992.80 993.26 993.48 993.85 994.52 995.14 995.86 997.05 998.09 999.27 1000.06 1001.05 1002.02 1002.85 1003.65
1005.37 1001.85 999.60 999.25 998.49 997.23 996.87 997.73 997.45 996.65 995.44 995.05 996.18 996.37 995.94 995.73 994.98 994.74 994.88 995.21 995.30 995.34 995.97 996.35 997.14 997.83 998.58 999.76 1000.40 1001.11 1001.90 1002.68
1005.80 1002.59 999.61 999.14 999.84 1000.17 999.99 1000.68 1000.15 998.62 996.12 996.32 996.32 995.35 997.48 997.57 997.12 997.16 996.77 996.72 996.70 996.40 996.49 996.68 997.28 997.68 998.39 999.29 999.83 1000.67 1001.27 1001.60
1006.14 1003.99 1002.78 1004.13 1001.91 998.91 999.31 1001.64 1001.89 1000.75 999.66 998.56 997.30 998.55 1000.54 999.82 999.02 998.92 998.29 997.93 997.81 997.68 997.47 997.41 997.88 997.58 998.31 998.96 999.53 999.85 1000.17 1000.64
1006.46 1005.23 1005.68 1006.08 1003.32 1000.89 1002.78 1005.96 1004.21 1003.25 1002.30 1001.69 1001.55 1002.17 1001.62 1000.75 1000.14 1000.00 999.44 999.05 998.76 998.32 998.37 998.45 998.29 998.18 998.61 998.97 999.21 999.12 999.80 1000.30
1007.92 1007.27 1008.46 1007.89 1006.08 1006.47 1008.35 1007.24 1005.93 1005.06 1004.08 1003.61 1003.00 1002.61 1001.93 1001.41 1001.27 1000.81 1000.30 999.78 999.57 999.37 999.14 998.60 998.25 998.27 998.78 999.16 999.15 999.14 999.31 999.91
1011.12 1010.12 1009.55 1009.06 1008.86 1008.46 1008.46 1007.61 1007.37 1006.78 1005.61 1004.63 1003.53 1003.00 1002.47 1002.54 1002.38 1002.04 1001.43 1000.87 1000.47 1000.23 1000.02 999.53 998.99 998.96 999.37 999.85 999.47 999.46 999.53 999.82
1011.47 1010.18 1009.87 1009.00 1008.85 1008.38 1008.15 1008.05 1008.24 1007.75 1006.86 1005.43 1004.39 1003.43 1003.26 1003.08 1002.85 1002.64 1002.15 1001.69 1001.39 1000.95 1000.70 1000.52 1000.09 999.72 999.84 1000.01 1000.01 1000.03 1000.05 1000.02
1011.72 1010.85 1010.13 1008.82 1009.24 1009.58 1008.29 1008.08 1007.90 1007.96 1007.40 1006.05 1004.85 1004.31 1003.86 1003.38 1003.32 1003.20 1002.82 1002.35 1001.81 1001.45 1001.48 1001.34 1000.79 1000.11 999.82 1000.01 1000.14 1000.39 1000.32 1000.06
1012.18 1011.56 1011.75 1010.76 1010.09 1010.08 1009.60 1008.01 1007.69 1007.28 1005.79 1005.37 1005.28 1004.90 1004.50 1004.28 1004.00 1003.70 1003.44 1002.91 1002.56 1002.49 1002.40 1001.95 1001.37 1000.77 1000.11 999.84 999.98 1000.41 1000.69 1000.53
1010.72 1009.97 1010.30 1009.77 1009.51 1009.20 1008.41 1008.17 1007.58 1006.91 1006.62 1006.31 1005.76 1005.51 1005.10 1005.05 1004.64 1004.28 1003.90 1003.78 1003.51 1003.38 1003.07 1002.62 1002.01 1001.38 1000.61 1000.19 1000.24 1000.40 1000.62 1000.45
Wind_Speed
20 19 16 11 19 11 6 2 4 4 5 10 12 7 22 26 24 25 26 25 24 25 26 24 22 25 25 23 21 20 20 16
27 11 20 19 10 9 4 13 5 5 7 11 11 12 14 29 30 30 26 26 21 24 25 23 23 23 24 23 24 21 19 17
4 11 24 5 15 6 7 7 10 4 11 9 12 12 10 20 32 31 31 27 23 22 24 25 22 21 22 21 22 19 19 18
11 12 4 21 8 10 9 11 3 4 13 7 12 12 11 14 28 30 30 27 24 22 24 22 21 20 20 20 20 20 19 17
11 5 3 5 12 11 7 6 11 13 16 6 6 8 14 20 19 30 31 29 25 21 22 21 22 20 20 20 21 19 18 18
9 10 11 6 12 10 16 9 10 12 10 7 15 14 17 11 14 22 28 29 26 23 23 21 22 21 20 20 19 19 18 18
21 28 26 24 12 14 14 14 14 11 7 9 9 12 9 5 10 17 25 28 27 25 22 21 20 20 18 18 19 20 19 19
25 19 18 18 6 7 13 17 7 8 8 8 6 10 5 6 14 17 23 28 28 28 27 23 22 21 19 19 20 20 20 20
8 6 6 5 14 7 7 7 9 11 11 3 8 10 15 7 15 10 9 20 24 26 25 22 22 21 20 19 17 18 18 18
8 8 7 9 20 16 19 22 20 12 10 14 16 15 20 17 16 18 16 13 9 8 7 8 12 16 15 13 16 17 17 17
3 4 4 12 21 14 6 17 22 20 5 17 17 26 19 16 15 12 11 7 6 8 9 9 7 9 14 14 15 15 16 17
5 2 5 13 28 30 5 19 22 21 22 16 11 16 5 11 11 11 12 9 9 7 8 10 5 7 9 12 12 15 16 15
5 3 6 22 29 17 12 5 12 16 15 16 15 3 4 6 14 10 11 12 8 9 8 5 4 6 8 7 9 11 7 9
8 7 6 17 12 11 5 10 17 14 11 9 7 9 11 14 15 15 17 16 15 12 10 7 6 7 6 4 3 4 8 9
4 3 5 1 4 4 8 10 14 16 16 12 7 7 10 10 12 13 13 13 13 11 11 9 12 9 11 7 6 3 4 6
8 4 11 14 7 9 14 14 13 12 16 15 10 8 8 8 10 10 11 12 10 13 14 14 6 8 7 7 7 7 5 4
9 6 12 3 8 16 23 18 17 13 9 12 12 13 6 7 8 8 8 10 10 10 10 11 11 6 6 6 6 6 6 6
5 13 13 20 21 20 18 20 18 13 17 11 8 9 8 7 6 6 8 9 11 8 7 9 10 8 7 7 7 6 5 5
9 8 12 19 19 21 19 18 20 12 10 10 6 6 7 4 5 7 8 8 9 8 7 6 8 8 6 6 5 5 5 5
Wind_Direction
222 216 189 201 215 181 124 212 166 219 211 271 256 175 186 199 195 199 211 199 201 194 193 189 181 184 185 187 190 189 190 187
234 232 216 200 159 185 176 217 241 264 210 211 227 242 176 191 198 201 209 203 200 191 192 193 186 186 184 187 188 189 190 194
294 214 219 172 203 193 156 159 221 225 245 197 218 231 216 179 193 197 201 203 199 194 191 195 187 183 185 185 188 189 192 194
249 247 301 222 186 183 199 214 197 188 255 208 213 217 226 225 193 197 196 197 201 192 188 190 187 183 186 187 188 192 191 191
309 22 262 207 211 195 169 137 197 217 257 244 249 235 226 229 183 189 194 191 196 185 188 188 190 186 187 186 190 190 188 190
279 307 326 279 223 200 191 194 195 219 252 283 286 285 297 236 176 169 188 185 188 183 187 186 190 190 188 190 188 187 188 192
257 263 271 261 251 208 202 191 193 222 203 247 263 275 260 181 143 157 173 177 180 182 185 186 189 193 189 190 187 184 188 193
286 256 226 242 242 266 211 201 148 188 240 238 251 292 97 102 138 158 168 177 181 181 181 182 186 190 188 188 188 186 191 196
267 314 187 69 355 7 203 162 186 201 227 151 57 348 20 10 87 105 118 182 184 184 182 182 184 186 188 190 184 189 192 196
265 310 147 129 35 36 51 38 14 347 335 112 107 76 48 33 55 71 77 76 80 112 129 158 184 185 189 180 190 192 194 193
264 268 158 23 5 344 1 38 16 2 93 121 114 72 36 16 34 43 55 52 59 73 88 92 103 165 177 184 189 193 202 200
316 336 68 3 336 335 142 40 8 16 28 32 33 78 17 346 23 34 46 44 45 45 64 68 57 111 159 189 190 202 204 203
247 98 76 355 341 347 64 39 19 11 29 35 56 25 277 3 31 31 34 42 29 34 57 52 56 93 109 141 198 209 216 208
338 58 54 348 353 59 300 358 9 360 15 33 38 26 30 35 26 20 25 25 26 30 20 3 33 92 97 92 194 179 172 173
23 184 179 66 307 282 9 11 5 351 352 341 33 26 35 33 23 15 18 18 20 23 20 17 47 58 64 10 12 17 145 189
321 134 3 316 302 360 357 348 341 336 334 354 355 24 30 29 21 12 9 12 4 21 22 10 5 78 85 54 38 34 350 307
285 283 329 1 341 336 321 324 318 316 314 341 357 356 20 21 12 3 358 2 4 12 9 1 351 23 75 74 64 32 355 327
278 286 277 271 287 289 296 301 297 309 313 333 356 352 350 0 357 355 351 356 357 355 356 351 349 341 2 32 47 41 2 338
300 257 238 260 270 278 283 283 279 283 275 287 322 345 340 327 333 353 352 358 350 333 328 333 338 324 339 359 8 355 324 314